Flag for Monaco Weather past 2 weeks in Monaco, Monaco

Now
73 °F

Scattered clouds.


Feels Like: 75 °F
Forecast: 63 / 78 °F
Wind: 6 mph from South

Location: Nice Airport

Current Time: Jun 3, 2015 at 5:46:23 PM

Latest Report: Jun 3, 2015 at 5:00 PM


Visibility: N/A

Pressure: 30.18 "Hg

Humidity: 74%

Dew point: 64 °F

Location of MonacoLocation

Historic Weather in Monaco — Graph

°F

Monaco temperature yesterday

Maximum temperature yesterday: 72 °F (at 10:00 AM)
Minimum temperature yesterday: 64 °F (at 2:30 AM)
Average temperature yesterday: 69 °F

Past Weeks' High & Low Weather Summary

 TemperatureHumidityPressure
High77 °F (May 20, 4:30 PM)88% (May 20, 1:00 AM)30.21 "Hg (May 20, 1:00 AM)
Low52 °F (May 21, 5:30 AM)27% (May 20, 7:30 PM)29.65 "Hg (May 20, 4:00 PM)
Average66 °F68%29.96 "Hg
* Reported May 19 5:00 PM — Jun 3 5:00 PM, Monaco, Weather by CustomWeather, © 2015

Note: Actual official high and low records may vary slightly from our data, if they occured in-between our weather recording intervals... More about our weather records

Advertising

Monaco weather history for previous 24 hours

 ConditionsComfort  
Time TempWeatherWind HumidityBarometerVisibility
5:00 PM
Wed, Jun 3
73 °FScattered clouds.6 mph74%30.18 "HgN/A
4:30 PM73 °FPassing clouds.6 mph74%30.18 "HgN/A
4:00 PM73 °FPassing clouds.6 mph74%30.18 "HgN/A
3:30 PM73 °FPassing clouds.6 mph74%30.18 "HgN/A
3:00 PM73 °FPassing clouds.6 mph69%30.18 "HgN/A
2:30 PM73 °FPassing clouds.6 mph74%30.21 "HgN/A
2:00 PM73 °FPassing clouds.7 mph69%30.21 "HgN/A
1:30 PM73 °FPassing clouds.7 mph69%30.21 "HgN/A
1:00 PM73 °FPassing clouds.7 mph74%30.21 "HgN/A
12:30 PM73 °FPassing clouds.7 mph69%30.21 "HgN/A
12:00 PM72 °FPassing clouds.6 mph73%30.21 "HgN/A
11:30 AM72 °FPassing clouds.6 mph73%30.21 "HgN/A
11:00 AM72 °FPassing clouds.5 mph73%30.21 "HgN/A
10:30 AM72 °FPassing clouds.5 mph73%30.21 "HgN/A
10:00 AM72 °FPassing clouds.3 mph73%30.18 "HgN/A
9:30 AM72 °FPassing clouds.2 mph73%30.18 "HgN/A
9:00 AM72 °FPassing clouds.2 mph73%30.18 "HgN/A
8:30 AM72 °FPassing clouds.2 mph69%30.18 "HgN/A
8:00 AM68 °FPassing clouds.3 mph73%30.18 "HgN/A
7:30 AM66 °FPassing clouds.6 mph78%30.18 "HgN/A
7:00 AM66 °FPassing clouds.7 mph78%30.15 "HgN/A
6:30 AM64 °FPassing clouds.7 mph78%30.15 "HgN/A
6:00 AM64 °FClear.6 mph78%30.15 "Hg10 mi
5:30 AM64 °FClear.7 mph78%30.15 "Hg10 mi
5:00 AM64 °FClear.6 mph78%30.15 "Hg10 mi
4:30 AM64 °FClear.7 mph78%30.15 "Hg10 mi
4:00 AM64 °FClear.7 mph78%30.15 "Hg10 mi
3:30 AM64 °FClear.7 mph78%30.15 "Hg10 mi
3:00 AM64 °FClear.6 mph83%30.15 "Hg10 mi
2:30 AM66 °FClear.6 mph78%30.15 "Hg10 mi
2:00 AM66 °FClear.6 mph78%30.15 "Hg10 mi
1:30 AM66 °FClear.5 mph78%30.15 "Hg10 mi
1:00 AM66 °FClear.5 mph78%30.15 "Hg10 mi
12:30 AM68 °FClear.3 mph73%30.15 "Hg10 mi
12:00 AM68 °FPassing clouds.3 mph73%30.15 "HgN/A
11:30 PM
Tue, Jun 2
68 °FClear.No wind78%30.15 "Hg10 mi
11:00 PM68 °FClear.No wind78%30.15 "Hg10 mi
10:30 PM68 °FClear.No wind78%30.15 "Hg10 mi
10:00 PM70 °FSunny.1 mph73%30.15 "Hg10 mi
9:30 PM70 °FPassing clouds.No wind73%30.15 "HgN/A
9:00 PM70 °FPassing clouds.No wind73%30.15 "HgN/A
8:30 PM70 °FPassing clouds.1 mph73%30.15 "HgN/A
8:00 PM72 °FPassing clouds.No wind69%30.12 "HgN/A
7:30 PM72 °FPassing clouds.1 mph69%30.12 "HgN/A
7:00 PM72 °FPassing clouds.2 mph69%30.15 "HgN/A
6:30 PM72 °FPassing clouds.2 mph69%30.15 "HgN/A
6:00 PM72 °FPassing clouds.2 mph69%30.15 "HgN/A
5:30 PM72 °FPassing clouds.2 mph69%30.15 "HgN/A
5:00 PM72 °FPassing clouds.3 mph69%30.15 "HgN/A
Weather by CustomWeather, © 2015

See weather overviewHow to use our weather pages